This demonstration page uses our WeatherBlox Daily Observations layout. Learn more.

Left ArrowRight Arrow

Hourly Observations for October 3, 2016

Temp ( °F °C ) Dew Point ( °F °C ) Humidity (%) Winds ( mph kmh ) Pressure ( in mb ) Visibility ( mi km ) Precip ( " mm )
12:15 am 00:15 Partly Cloudy 63 17 52 11 68 68 SE 14 22 29.94 1014 10 16 0.00 0.00
12:35 am 00:35 Mostly Cloudy 63 17 52 11 68 68 SSE 14 22 29.94 1014 10 16 0.00 0.00
12:55 am 00:55 Partly Cloudy 63 17 52 11 68 68 SE 12 19 29.91 1013 10 16 0.00 0.00
1:15 am 01:15 Partly Cloudy 63 17 52 11 68 68 SE 12 19 29.91 1013 10 16 0.00 0.00
1:35 am 01:35 Mostly Cloudy 61 16 52 11 72 72 SE 10 17 29.91 1013 10 16 0.00 0.00
1:55 am 01:55 Mostly Clear 61 16 52 11 72 72 SE 10 17 29.91 1013 10 16 0.00 0.00
2:15 am 02:15 Clear 61 16 52 11 72 72 SE 10 17 29.91 1013 10 16 0.00 0.00
2:35 am 02:35 Clear 61 16 52 11 72 72 SSE 10 17 29.91 1013 10 16 0.00 0.00
2:55 am 02:55 Clear 59 15 52 11 77 77 SSE 12 19 29.94 1014 10 16 0.00 0.00
3:15 am 03:15 Clear 59 15 52 11 77 77 SSE 9 15 29.94 1014 10 16 0.00 0.00
3:35 am 03:35 Clear 59 15 52 11 77 77 SSE 12 19 29.88 1012 10 16 0.00 0.00
3:55 am 03:55 Clear 59 15 52 11 77 77 SE 12 19 29.88 1012 10 16 0.00 0.00
4:15 am 04:15 Clear 59 15 52 11 77 77 SE 14 22 29.88 1012 10 16 0.00 0.00
4:35 am 04:35 Clear 57 14 52 11 82 82 SSE 12 19 29.91 1013 10 16 0.00 0.00
4:55 am 04:55 Clear 57 14 52 11 82 82 SSE 14 22 29.91 1013 10 16 0.00 0.00
5:15 am 05:15 Clear 57 14 52 11 82 82 SSE 13 20 29.91 1013 10 16 0.00 0.00
5:35 am 05:35 Clear 57 14 52 11 82 82 SSE 12 19 29.91 1013 10 16 0.00 0.00
5:55 am 05:55 Clear 57 14 52 11 82 82 SSE 12 19 29.88 1012 10 16 0.00 0.00
6:15 am 06:15 Clear 57 14 52 11 82 82 SSE 13 20 29.88 1012 10 16 0.00 0.00
6:35 am 06:35 Mostly Clear 55 13 52 11 88 88 SSE 13 20 29.88 1012 10 16 0.00 0.00
6:55 am 06:55 Mostly Clear 55 13 52 11 88 88 SE 12 19 29.88 1012 10 16 0.00 0.00
7:15 am 07:15 Partly Cloudy 55 13 52 11 88 88 SE 12 19 29.88 1012 10 16 0.00 0.00
7:35 am 07:35 Mostly Clear 55 13 52 11 88 88 SE 9 15 29.88 1012 10 16 0.00 0.00
7:55 am 07:55 Sunny 55 13 52 11 88 88 SSE 10 17 29.88 1012 10 16 0.00 0.00
8:15 am 08:15 Sunny 57 14 52 11 82 82 SE 13 20 29.85 1011 10 16 0.00 0.00
8:35 am 08:35 Sunny 57 14 52 11 82 82 SSE 15 24 29.85 1011 10 16 0.00 0.00
8:55 am 08:55 Sunny 61 16 52 11 72 72 SSE 14 22 29.83 1010 10 16 0.00 0.00
9:15 am 09:15 Sunny 61 16 52 11 72 72 SSE 17 28 29.83 1010 10 16 0.00 0.00
9:35 am 09:35 Sunny 63 17 54 12 73 73 SSE 20 31 29.83 1010 10 16 0.00 0.00
9:55 am 09:55 Sunny 64 18 54 12 68 68 SSE 18 30 29.83 1010 10 16 0.00 0.00
10:15 am 10:15 Sunny 64 18 52 11 64 64 SSE 17 28 29.77 1008 10 16 0.00 0.00
10:35 am 10:35 Sunny 64 18 52 11 64 64 SSE 17 28 29.77 1008 10 16 0.00 0.00
10:55 am 10:55 Mostly Sunny 64 18 52 11 64 64 SE 17 28 29.77 1008 10 16 0.00 0.00
11:15 am 11:15 Mostly Sunny 66 19 54 12 64 64 SSE 23 37 29.74 1007 10 16 0.00 0.00
11:35 am 11:35 Sunny 66 19 54 12 64 64 SSE 25 41 29.74 1007 10 16 0.00 0.00
11:55 am 11:55 Partly Cloudy 66 19 54 12 64 64 SSE 20 31 29.74 1007 10 16 0.00 0.00
12:15 pm 12:15 Mostly Cloudy 68 20 54 12 60 60 SE 23 37 29.74 1007 10 16 0.00 0.00
12:35 pm 12:35 Mostly Cloudy 72 22 55 13 57 57 SSE 23 37 29.68 1005 10 16 0.00 0.00
12:55 pm 12:55 Mostly Cloudy 73 23 54 12 50 50 SE 24 39 29.68 1005 10 16 0.00 0.00
1:15 pm 13:15 Cloudy 73 23 55 13 53 53 SSE 26 43 29.68 1005 10 16 0.00 0.00
1:35 pm 13:35 Partly Cloudy 75 24 55 13 50 50 SE 28 44 29.65 1004 10 16 0.00 0.00
1:55 pm 13:55 Sunny 75 24 54 12 47 47 SE 26 43 29.65 1004 10 16 0.00 0.00
2:15 pm 14:15 Mostly Sunny 75 24 54 12 47 47 SSE 30 48 29.62 1003 10 16 0.00 0.00
2:35 pm 14:35 Mostly Cloudy 77 25 55 13 47 47 SSE 32 52 29.56 1001 10 16 0.00 0.00
2:55 pm 14:55 Mostly Sunny 77 25 54 12 44 44 SE 31 50 29.56 1001 10 16 0.00 0.00
3:15 pm 15:15 Sunny 75 24 54 12 47 47 SSE 33 54 29.59 1002 10 16 0.00 0.00
3:35 pm 15:35 Sunny 75 24 55 13 50 50 SSE 28 44 29.53 1000 10 16 0.00 0.00
3:55 pm 15:55 Sunny 75 24 54 12 47 47 SSE 25 41 29.53 1000 10 16 0.00 0.00
4:15 pm 16:15 Sunny 77 25 54 12 44 44 SSE 30 48 29.53 1000 10 16 0.00 0.00
4:35 pm 16:35 Sunny 77 25 54 12 44 44 SSE 30 48 29.53 1000 10 16 0.00 0.00
4:55 pm 16:55 Sunny 77 25 54 12 44 44 SSE 32 52 29.50 999 10 16 0.00 0.00
5:15 pm 17:15 Sunny 77 25 54 12 44 44 SSE 29 46 29.50 999 10 16 0.00 0.00
5:35 pm 17:35 Sunny 77 25 52 11 42 42 SSE 25 41 29.50 999 10 16 0.00 0.00
5:55 pm 17:55 Sunny 77 25 52 11 42 42 SSE 30 48 29.50 999 10 16 0.00 0.00
6:15 pm 18:15 Sunny 75 24 52 11 44 44 SSE 26 43 29.47 998 10 16 0.00 0.00
6:35 pm 18:35 Sunny 75 24 52 11 44 44 SSE 25 41 29.47 998 10 16 0.00 0.00
6:55 pm 18:55 Sunny 75 24 50 10 41 41 SSE 28 44 29.50 999 10 16 0.00 0.00
7:15 pm 19:15 Clear 73 23 50 10 44 44 SSE 23 37 29.50 999 10 16 0.00 0.00
7:35 pm 19:35 Mostly Clear 73 23 50 10 44 44 SSE 24 39 29.50 999 10 16 0.00 0.00
7:55 pm 19:55 Partly Cloudy 73 23 50 10 44 44 SSE 21 33 29.50 999 10 16 0.00 0.00
8:15 pm 20:15 Mostly Clear 73 23 50 10 44 44 SE 24 39 29.50 999 10 16 0.00 0.00
8:35 pm 20:35 Clear 72 22 52 11 50 50 SSE 23 37 29.50 999 10 16 0.00 0.00
8:55 pm 20:55 Clear 72 22 52 11 50 50 SSE 26 43 29.50 999 10 16 0.00 0.00
9:15 pm 21:15 Clear 72 22 52 11 50 50 SSE 26 43 29.50 999 10 16 0.00 0.00
9:35 pm 21:35 Clear 72 22 52 11 50 50 SSE 28 44 29.50 999 10 16 0.00 0.00
9:55 pm 21:55 Clear 70 21 52 11 53 53 SSE 28 44 29.47 998 10 16 0.00 0.00
10:15 pm 22:15 Clear 70 21 52 11 53 53 SSE 29 46 29.47 998 10 16 0.00 0.00
10:35 pm 22:35 Clear 70 21 52 11 53 53 SSE 25 41 29.47 998 10 16 0.00 0.00
10:55 pm 22:55 Clear 70 21 52 11 53 53 SSE 25 41 29.47 998 10 16 0.00 0.00
11:15 pm 23:15 Clear 68 20 54 12 60 60 SSE 25 41 29.47 998 10 16 0.00 0.00
11:35 pm 23:35 Clear 68 20 54 12 60 60 SSE 24 39 29.47 998 10 16 0.00 0.00
11:55 pm 23:55 Clear 68 20 54 12 60 60 SSE 28 44 29.47 998 10 16 0.00 0.00

Powered by AerisWeather